Weather History for Lander, WY

Change the Weather History Date:

Wednesday, April 23, 2014

  Actual Average Record
Temperature  
Mean Temperature 43 °F 46 °F  
Max Temperature 51 °F 59 °F 83 °F (2012)
Min Temperature 35 °F 33 °F 9 °F (2013)
Degree Days  
Heating Degree Days 22 19  
Month to date heating degree days 474 510  
Since 1 July heating degree days 7105 7129  
Cooling Degree Days 0 0  
Month to date cooling degree days 0 0  
Year to date cooling degree days 0 0  
Moisture  
Dew Point 15 °F    
Average Humidity 40    
Maximum Humidity 64    
Minimum Humidity 15    
Precipitation  
Precipitation 0.00 in 0.07 in 2.00 in (1929)
Month to date precipitation 0.62 1.36  
Year to date precipitation 2.60 3.51  
Snow  
Snow 0.00 in 0.50 in - ()
Month to date snowfall 4.3 13.2  
Since 1 July snowfall 73.5 82.9  
Snow Depth 0.00 in    
Sea Level Pressure  
Sea Level Pressure 29.68 in    
Wind  
Wind Speed 13 mph (West)    
Max Wind Speed 31 mph    
Max Gust Speed 40 mph    
Visibility 10 miles    
Events      
T = Trace of Precipitation, MM = Missing Value Source: NWS Daily Summary

Daily Weather History Graph

Daily Weather History Graph

Search for Another Location

Airport:

Trip Planner

Search our weather history database for the weather conditions in past years. The results will help you decide how hot, cold, wet, or windy it might be!

Date:

Astronomy

Apr. 23, 2014 Rise Set
Actual Time 6:20 AM MDT 8:06 PM MDT
Civil Twilight 5:50 AM MDT 8:36 PM MDT
Nautical Twilight 5:13 AM MDT 9:13 PM MDT
Astronomical Twilight 4:34 AM MDT 9:53 PM MDT
Moon 3:03 AM MDT (4/23) 2:10 PM MDT (4/23)
Length of Visible Light 14h 46m
Length of Day
13h 45m
Waning Crescent, 34% of the Moon is Illuminated
Apr 23
Waning Crescent
Apr 29
New
May 6
First Quarter
May 14
Full
May 21
Last Quarter

Hourly Weather History & Observations

Time (MDT) Temp. Windchill Dew Point Humidity Pressure Visibility Wind Dir Wind Speed Gust Speed Precip Events Conditions
12:53 AM 50.0 °F - 35.1 °F 57% 29.38 in 10.0 mi WSW 8.1 mph - 0.00 in   Clear
1:53 AM 48.9 °F - 33.1 °F 54% 29.39 in 10.0 mi WNW 11.5 mph 16.1 mph N/A   Clear
2:53 AM 46.9 °F - 28.0 °F 48% 29.46 in 10.0 mi West 5.8 mph - N/A   Clear
3:53 AM 44.1 °F - 28.0 °F 53% 29.45 in 10.0 mi Calm Calm - N/A   Clear
4:53 AM 43.0 °F 36.0 °F 23.0 °F 45% 29.48 in 10.0 mi WNW 13.8 mph - N/A   Clear
5:53 AM 41.0 °F 33.9 °F 23.0 °F 49% 29.50 in 10.0 mi SW 12.7 mph - N/A   Clear
6:53 AM 37.9 °F 32.1 °F 27.0 °F 65% 29.57 in 10.0 mi SSW 8.1 mph - N/A   Clear
7:53 AM 43.0 °F 35.7 °F 15.1 °F 32% 29.60 in 10.0 mi West 15.0 mph 23.0 mph N/A   Clear
8:53 AM 45.0 °F 40.1 °F 12.0 °F 26% 29.59 in 10.0 mi WNW 9.2 mph 20.7 mph N/A   Clear
9:53 AM 48.0 °F - 8.1 °F 20% 29.60 in 10.0 mi West 6.9 mph - N/A   Clear
10:53 AM 48.0 °F - 8.1 °F 20% 29.65 in 10.0 mi WSW 10.4 mph - N/A   Partly Cloudy
11:16 AM 50.0 °F - 8.1 °F 18% 29.73 in 10.0 mi WSW 19.6 mph 28.8 mph N/A   Partly Cloudy
11:53 AM 50.0 °F - 5.0 °F 16% 29.68 in 10.0 mi WSW 19.6 mph 27.6 mph N/A   Clear
12:53 PM 50.0 °F - 8.1 °F 18% 29.68 in 10.0 mi WNW 17.3 mph 32.2 mph N/A   Clear
1:53 PM 50.0 °F - 12.2 °F 22% 29.78 in 10.0 mi West 16.1 mph 31.1 mph N/A   Clear
2:53 PM 50.0 °F - 10.9 °F 21% 29.71 in 10.0 mi WNW 21.9 mph 27.6 mph N/A   Clear
3:53 PM 50.0 °F - 5.0 °F 16% 29.73 in 10.0 mi West 23.0 mph 36.8 mph N/A   Clear
4:53 PM 48.0 °F - 5.0 °F 17% 29.76 in 10.0 mi West 28.8 mph 40.3 mph N/A   Clear
5:53 PM 48.0 °F - 7.0 °F 19% 29.81 in 10.0 mi West 20.7 mph 29.9 mph N/A   Clear
6:53 PM 45.0 °F 36.2 °F 3.9 °F 18% 29.86 in 10.0 mi West 24.2 mph 32.2 mph N/A   Clear
7:53 PM 39.9 °F 33.4 °F 10.9 °F 31% 29.88 in 10.0 mi WSW 10.4 mph - N/A   Clear
8:53 PM 37.9 °F 31.5 °F 12.0 °F 35% 29.91 in 10.0 mi WSW 9.2 mph - N/A   Clear
9:53 PM 37.0 °F 30.4 °F 14.0 °F 39% 29.91 in 10.0 mi SW 9.2 mph - N/A   Clear
10:53 PM 37.9 °F 32.1 °F 15.1 °F 39% 29.91 in 10.0 mi SW 8.1 mph - N/A   Clear
11:53 PM 36.0 °F 28.5 °F 14.0 °F 41% 29.91 in 10.0 mi WSW 10.4 mph - N/A   Clear